Location: Waco, TX
(31.5480°N, 97.1670°W)
Time: 07:30:31
(UTC-05:00)

ISS - Pass Details

Date: 26 September 2022
Orbit: 414 x 417 km, 51.6° (Epoch: 01 October)

Event Time Altitude Azimuth Distance (km) Brightness Sun altitude
Rises 23:44:50 0° 316° (NW) 2,358 - -52.6°
Reaches altitude 10° 23:46:56 10° 317° (NW) 1,492 - -52.9°
Maximum altitude 23:50:17 81° 44° (NE) 424 - -53.4°
Drops below altitude 10° 23:53:37 10° 133° (SE) 1,484 - -53.8°
Sets 23:55:42 0° 134° (SE) 2,343 - -54.1°
